Bedford, MA

1:02 PM EDT on July 24, 2017 (GMT -0400)
Hanscom

Weather History for KBED - November, 2012

Change the Weather History Date:

Friday, November 9, 2012

  Actual Average Record
Temperature  
Mean Temperature 44 °F -  
Max Temperature 53 °F 52 °F 73 °F (1975)
Min Temperature 34 °F 33 °F 15 °F (1992)
Degree Days  
Heating Degree Days 21    
Moisture  
Dew Point 25 °F    
Average Humidity 54    
Maximum Humidity 76    
Minimum Humidity 29    
Precipitation  
Precipitation 0.00 in - - ()
Sea Level Pressure  
Sea Level Pressure 29.97 in    
Wind  
Wind Speed 12 mph (WNW)    
Max Wind Speed 17 mph    
Max Gust Speed 25 mph    
Visibility 10 miles    
Events      
Averages and records for this station are not official NWS values.
T = Trace of Precipitation, MM = Missing Value Source: NWS Daily Summary

Daily Weather History Graph

Daily Weather History Graph

Search for Another Location

Airport or City:

Trip Planner

Search our weather history database for the weather conditions in past years. The results will help you decide how hot, cold, wet, or windy it might be!

Date:

Astronomy

Nov. 09, 2012 Rise Set
Actual Time 6:29 AM EST 4:28 PM EST
Civil Twilight 5:59 AM EST 4:58 PM EST
Nautical Twilight 5:25 AM EST 5:31 PM EST
Astronomical Twilight 4:52 AM EST 6:04 PM EST
Moon 1:19 AM EST (11/9) 1:44 PM EST (11/9)
Length of Visible Light 10h 58m
Length of Day
9h 58m
Waning Crescent, 23% of the Moon is Illuminated
Nov 9
Waning Crescent
Nov 13
New
Nov 20
First Quarter
Nov 28
Full
Dec 6
Last Quarter

Hourly Weather History & Observations

Time (EST) Temp. Windchill Dew Point Humidity Pressure Visibility Wind Dir Wind Speed Gust Speed Precip Events Conditions
12:56 AM 37.9 °F 29.6 °F 30.9 °F 76% 29.80 in 10.0 mi NW 13.8 mph 21.9 mph N/A   Overcast
1:56 AM 37.9 °F 30.9 °F 30.0 °F 73% 29.82 in 10.0 mi NW 10.4 mph 19.6 mph N/A   Overcast
2:56 AM 37.9 °F 29.2 °F 28.9 °F 70% 29.83 in 10.0 mi NW 15.0 mph 23.0 mph N/A   Overcast
3:56 AM 37.9 °F 29.6 °F 28.9 °F 70% 29.84 in 10.0 mi NW 13.8 mph 20.7 mph N/A   Mostly Cloudy
4:56 AM 37.0 °F 28.5 °F 28.0 °F 70% 29.86 in 10.0 mi NW 13.8 mph 18.4 mph N/A   Clear
5:56 AM 36.0 °F 28.0 °F 28.0 °F 73% 29.88 in 10.0 mi NW 11.5 mph 20.7 mph N/A   Clear
6:56 AM 35.6 °F 27.1 °F 28.4 °F 75% 29.87 in 10.0 mi NW 12.7 mph 20.7 mph N/A   Scattered Clouds
7:56 AM 39.0 °F 30.6 °F 28.9 °F 67% 29.94 in 10.0 mi NW 15.0 mph 19.6 mph N/A   Clear
8:56 AM 42.1 °F 34.9 °F 28.9 °F 60% 29.94 in 10.0 mi NW 13.8 mph 21.9 mph N/A   Clear
9:56 AM 45.0 °F 38.9 °F 28.9 °F 53% 29.95 in 10.0 mi NW 12.7 mph - N/A   Clear
10:56 AM 48.0 °F - 28.9 °F 48% 29.96 in 10.0 mi NW 17.3 mph 24.2 mph N/A   Clear
11:56 AM 50.0 °F - 28.0 °F 43% 29.96 in 10.0 mi NW 13.8 mph - N/A   Clear
12:56 PM 51.1 °F - 21.0 °F 31% 29.96 in 10.0 mi NW 13.8 mph - N/A   Clear
1:56 PM 53.1 °F - 21.0 °F 29% 29.96 in 10.0 mi NW 16.1 mph 25.3 mph N/A   Clear
2:56 PM 52.0 °F - 21.0 °F 30% 29.98 in 10.0 mi WNW 16.1 mph 20.7 mph N/A   Clear
3:56 PM 50.0 °F - 21.0 °F 32% 30.00 in 10.0 mi NW 13.8 mph 19.6 mph N/A   Clear
4:56 PM 46.9 °F - 21.0 °F 36% 30.04 in 10.0 mi WNW 12.7 mph - N/A   Clear
5:56 PM 45.0 °F 39.3 °F 21.0 °F 39% 30.07 in 10.0 mi WNW 11.5 mph - N/A   Clear
6:56 PM 42.1 °F 38.4 °F 21.9 °F 45% 30.10 in 10.0 mi WNW 5.8 mph - N/A   Clear
7:56 PM 42.1 °F 39.2 °F 21.9 °F 45% 30.10 in 10.0 mi WSW 4.6 mph - N/A   Clear
8:56 PM 39.0 °F 34.8 °F 21.9 °F 50% 30.12 in 10.0 mi WSW 5.8 mph - N/A   Clear
9:56 PM 36.0 °F 30.3 °F 23.0 °F 59% 30.12 in 10.0 mi WSW 6.9 mph - N/A   Partly Cloudy
10:56 PM 37.0 °F 31.6 °F 24.1 °F 59% 30.13 in 10.0 mi WSW 6.9 mph - N/A   Overcast
11:56 PM 34.0 °F 31.0 °F 24.1 °F 67% 30.14 in 10.0 mi SSW 3.5 mph - N/A   Clear